DLH205 CYVR-LTFM

Flight info

Callsign DLH205
Flight time N/A
Altitude 35000
Route WALUP DCT HIDIN DCT IKPAM DCT CALCI DCT ZF DCT BOTER DCT CB DCT 71N00 DCT 74N090W DCT 7680N DCT GIRIN DCT 7860N DCT 78N050W DCT 7840N DCT 7620N DCT H7202 DCT 70N005E DCT OGPAR DCT SEGKA DCT DETMU DCT BENKA DCT LUMAX DCT DOKOT DCT IZWEW DCT VASOK DCT SOLNU DCT KENUX DCT RIXEN RIXE1M
Aircraft A388/J-SADE2E3FGHIJ3J4J5M1RWXY/LB1D1

Departure

Time 2026-05-08 04:11
Airport Vancouver International Airport (CYVR)

Arrival

Time N/A
Airport İstanbul Airport (LTFM)
Time Latitude Longitude Altitude Speed Heading
2026-05-08 03:13 49.19964 -123.18373 16 ft 0 kts 190°
2026-05-08 03:53 49.19965 -123.18373 16 ft 2 kts 190°
2026-05-08 03:53 49.19980 -123.18369 16 ft 2 kts 190°
2026-05-08 03:53 49.19999 -123.18363 16 ft 2 kts 190°
2026-05-08 03:53 49.20009 -123.18361 16 ft 2 kts 190°
2026-05-08 03:54 49.20025 -123.18355 16 ft 2 kts 225°
2026-05-08 03:54 49.20033 -123.18335 16 ft 2 kts 272°
2026-05-08 03:54 49.20032 -123.18323 16 ft 1 kts 281°
2026-05-08 03:54 49.20032 -123.18319 16 ft 0 kts 280°
2026-05-08 03:59 49.20036 -123.18353 16 ft 5 kts 280°
2026-05-08 03:59 49.20042 -123.18400 16 ft 9 kts 280°
2026-05-08 03:59 49.19995 -123.18526 16 ft 13 kts 199°
2026-05-08 04:00 49.19937 -123.18543 16 ft 13 kts 190°
2026-05-08 04:00 49.19847 -123.18567 16 ft 13 kts 190°
2026-05-08 04:00 49.19756 -123.18608 16 ft 14 kts 210°
2026-05-08 04:00 49.19669 -123.18672 16 ft 14 kts 197°
2026-05-08 04:01 49.19571 -123.18700 16 ft 15 kts 189°
2026-05-08 04:01 49.19469 -123.18721 16 ft 15 kts 179°
2026-05-08 04:01 49.19329 -123.18703 16 ft 16 kts 186°
2026-05-08 04:01 49.19221 -123.18722 16 ft 16 kts 175°
2026-05-08 04:02 49.19124 -123.18648 16 ft 16 kts 142°
2026-05-08 04:02 49.19067 -123.18578 16 ft 15 kts 142°
2026-05-08 04:02 49.18986 -123.18481 16 ft 14 kts 140°
2026-05-08 04:02 49.18946 -123.18355 16 ft 13 kts 100°
2026-05-08 04:03 49.18931 -123.18227 16 ft 12 kts 100°
2026-05-08 04:03 49.18902 -123.17979 16 ft 12 kts 101°
2026-05-08 04:03 49.18881 -123.17809 16 ft 12 kts 100°
2026-05-08 04:04 49.18871 -123.17721 16 ft 13 kts 100°
2026-05-08 04:04 49.18855 -123.17588 16 ft 13 kts 100°
2026-05-08 04:04 49.18840 -123.17453 16 ft 13 kts 100°
2026-05-08 04:04 49.18824 -123.17315 16 ft 13 kts 100°
2026-05-08 04:05 49.18808 -123.17174 16 ft 14 kts 100°
2026-05-08 04:05 49.18794 -123.17049 16 ft 14 kts 100°
2026-05-08 04:05 49.18780 -123.16926 16 ft 14 kts 100°
2026-05-08 04:05 49.18759 -123.16742 16 ft 13 kts 100°
2026-05-08 04:06 49.18750 -123.16657 16 ft 12 kts 100°
2026-05-08 04:06 49.18736 -123.16536 16 ft 11 kts 100°
2026-05-08 04:06 49.18723 -123.16425 16 ft 10 kts 100°
2026-05-08 04:06 49.18703 -123.16326 16 ft 10 kts 118°
2026-05-08 04:07 49.18671 -123.16233 16 ft 10 kts 118°
2026-05-08 04:07 49.18646 -123.16162 16 ft 5 kts 118°
2026-05-08 04:07 49.18635 -123.16131 16 ft 1 kts 118°
2026-05-08 04:07 49.18634 -123.16128 16 ft 0 kts 118°
2026-05-08 04:08 49.18633 -123.16125 16 ft 0 kts 118°
2026-05-08 04:08 49.18632 -123.16123 16 ft 0 kts 118°
2026-05-08 04:08 49.18631 -123.16120 16 ft 0 kts 118°
2026-05-08 04:08 49.18625 -123.16103 16 ft 4 kts 118°
2026-05-08 04:09 49.18598 -123.16051 16 ft 9 kts 148°
2026-05-08 04:09 49.18537 -123.16046 16 ft 9 kts 195°
2026-05-08 04:09 49.18489 -123.16103 16 ft 9 kts 239°
2026-05-08 04:09 49.18486 -123.16177 16 ft 4 kts 281°
2026-05-08 04:10 49.18488 -123.16192 16 ft 0 kts 281°
2026-05-08 04:10 49.18489 -123.16198 16 ft 6 kts 281°
2026-05-08 04:10 49.18531 -123.16572 16 ft 66 kts 279°
2026-05-08 04:10 49.18646 -123.17576 16 ft 126 kts 279°
2026-05-08 04:11 49.18835 -123.19197 21 ft 184 kts 278°
2026-05-08 04:11 49.19075 -123.21248 476 ft 208 kts 278°
2026-05-08 04:11 49.19341 -123.23474 891 ft 217 kts 278°
2026-05-08 04:11 49.19594 -123.25739 1353 ft 219 kts 277°
2026-05-08 04:12 49.19838 -123.28022 1802 ft 219 kts 277°
2026-05-08 04:12 49.20063 -123.30329 2256 ft 220 kts 277°
2026-05-08 04:12 49.20277 -123.32627 2714 ft 220 kts 278°
2026-05-08 04:12 49.20486 -123.34940 3178 ft 223 kts 277°
2026-05-08 04:13 49.20693 -123.37287 3579 ft 224 kts 277°
2026-05-08 04:13 49.20901 -123.39634 4086 ft 225 kts 277°
2026-05-08 04:13 49.21114 -123.41990 4584 ft 226 kts 278°
2026-05-08 04:13 49.21471 -123.44343 5080 ft 239 kts 300°
2026-05-08 04:14 49.22707 -123.46096 5798 ft 256 kts 339°
2026-05-08 04:14 49.24472 -123.46457 6496 ft 265 kts
2026-05-08 04:14 49.26314 -123.46240 7029 ft 270 kts
2026-05-08 04:14 49.28173 -123.45916 7532 ft 271 kts
2026-05-08 04:15 49.30040 -123.45587 8015 ft 273 kts
2026-05-08 04:15 49.31923 -123.45254 8463 ft 275 kts
2026-05-08 04:15 49.33816 -123.44918 8913 ft 276 kts
2026-05-08 04:15 49.35786 -123.44569 9410 ft 298 kts
2026-05-08 04:16 49.37931 -123.44186 9949 ft 328 kts
2026-05-08 04:16 49.40280 -123.43647 10463 ft 360 kts 14°
2026-05-08 04:16 49.42725 -123.42505 10992 ft 376 kts 18°
2026-05-08 04:16 49.44643 -123.41447 11351 ft 381 kts 21°
2026-05-08 04:17 49.47110 -123.39963 11805 ft 385 kts 21°
2026-05-08 04:17 49.49608 -123.38495 12255 ft 388 kts 21°
2026-05-08 04:17 49.52142 -123.36992 12709 ft 391 kts 20°
2026-05-08 04:17 49.54675 -123.35492 13159 ft 394 kts 20°
2026-05-08 04:18 49.57226 -123.33978 13609 ft 396 kts 20°
2026-05-08 04:18 49.59789 -123.32456 14058 ft 399 kts 20°
2026-05-08 04:18 49.62371 -123.30920 14509 ft 401 kts 20°
2026-05-08 04:18 49.64968 -123.29374 14958 ft 404 kts 20°
2026-05-08 04:19 49.68466 -123.27289 15560 ft 408 kts 20°
2026-05-08 04:19 49.70234 -123.26234 15862 ft 409 kts 20°
2026-05-08 04:19 49.72882 -123.24651 16312 ft 412 kts 20°
2026-05-08 04:19 49.75548 -123.23057 16762 ft 415 kts 20°
2026-05-08 04:20 49.78228 -123.21453 17212 ft 417 kts 20°
2026-05-08 04:20 49.80927 -123.19834 17662 ft 420 kts 19°
2026-05-08 04:20 49.83640 -123.18206 18112 ft 422 kts 19°
2026-05-08 04:20 49.86368 -123.16567 18562 ft 425 kts 19°
2026-05-08 04:21 49.89133 -123.14903 19016 ft 427 kts 19°
2026-05-08 04:21 49.91890 -123.13242 19467 ft 429 kts 19°
2026-05-08 04:21 49.94662 -123.11570 19917 ft 432 kts 19°
2026-05-08 04:21 49.97452 -123.09885 20367 ft 434 kts 19°
2026-05-08 04:22 50.01202 -123.07617 20969 ft 437 kts 19°
2026-05-08 04:22 50.03075 -123.06482 21268 ft 439 kts 19°
2026-05-08 04:22 50.05914 -123.04761 21719 ft 441 kts 18°
2026-05-08 04:22 50.08788 -123.03017 22173 ft 444 kts 18°
2026-05-08 04:23 50.11659 -123.01273 22623 ft 447 kts 18°
2026-05-08 04:23 50.14545 -122.99516 23074 ft 450 kts 18°
2026-05-08 04:23 50.17448 -122.97747 23525 ft 453 kts 18°
2026-05-08 04:23 50.20370 -122.95964 23965 ft 455 kts 18°
2026-05-08 04:24 50.23314 -122.94167 24340 ft 459 kts 18°
2026-05-08 04:24 50.26272 -122.92357 24717 ft 461 kts 18°
2026-05-08 04:24 50.29271 -122.90520 25097 ft 463 kts 18°
2026-05-08 04:24 50.32261 -122.88686 25474 ft 466 kts 18°
2026-05-08 04:25 50.35267 -122.86840 25852 ft 468 kts 17°
2026-05-08 04:25 50.38289 -122.84980 26229 ft 470 kts 17°
2026-05-08 04:25 50.41322 -122.83112 26607 ft 472 kts 17°
2026-05-08 04:25 50.44357 -122.81240 26979 ft 472 kts 17°
2026-05-08 04:26 50.47388 -122.79367 27324 ft 471 kts 17°
2026-05-08 04:26 50.50455 -122.77472 27576 ft 477 kts 17°
2026-05-08 04:26 50.53531 -122.75568 27837 ft 479 kts 17°
2026-05-08 04:26 50.56614 -122.73655 28089 ft 479 kts 17°
2026-05-08 04:27 50.59699 -122.71737 28338 ft 479 kts 17°
2026-05-08 04:27 50.63810 -122.69180 28669 ft 478 kts 17°
2026-05-08 04:27 50.65850 -122.67908 28834 ft 477 kts 17°
2026-05-08 04:27 50.68915 -122.65995 29081 ft 476 kts 16°
2026-05-08 04:28 50.71999 -122.64070 29331 ft 476 kts 16°
2026-05-08 04:28 50.75053 -122.62160 29579 ft 475 kts 16°
2026-05-08 04:28 50.78101 -122.60251 29827 ft 474 kts 16°
2026-05-08 04:28 50.81142 -122.58343 30074 ft 473 kts 16°
2026-05-08 04:29 50.84179 -122.56437 30323 ft 472 kts 16°
2026-05-08 04:29 50.87208 -122.54529 30569 ft 471 kts 16°
2026-05-08 04:29 50.91246 -122.51985 30900 ft 470 kts 15°
2026-05-08 04:29 50.93272 -122.50708 31065 ft 470 kts 15°
2026-05-08 04:30 50.96289 -122.48802 31313 ft 469 kts 15°
2026-05-08 04:30 50.99302 -122.46897 31562 ft 469 kts 15°
2026-05-08 04:30 51.02310 -122.44991 31810 ft 468 kts 15°
2026-05-08 04:30 51.06315 -122.42449 32141 ft 466 kts 15°
2026-05-08 04:31 51.08303 -122.41186 32305 ft 466 kts 15°
2026-05-08 04:31 51.11291 -122.39286 32555 ft 465 kts 15°
2026-05-08 04:31 51.14293 -122.37373 32810 ft 464 kts 15°
2026-05-08 04:31 51.18246 -122.34852 33146 ft 463 kts 16°
2026-05-08 04:32 51.20243 -122.33575 33306 ft 463 kts 16°
2026-05-08 04:32 51.23212 -122.31677 33545 ft 463 kts 16°
2026-05-08 04:32 51.26180 -122.29775 33786 ft 462 kts 15°
2026-05-08 04:32 51.29138 -122.27877 34028 ft 461 kts 15°
2026-05-08 04:33 51.32092 -122.25980 34195 ft 461 kts 15°
2026-05-08 04:33 51.35074 -122.24062 34308 ft 462 kts 15°
2026-05-08 04:33 51.38037 -122.22154 34430 ft 461 kts 15°
2026-05-08 04:33 51.40995 -122.20247 34549 ft 461 kts 15°
2026-05-08 04:34 51.43952 -122.18336 34668 ft 461 kts 15°
2026-05-08 04:34 51.46903 -122.16424 34789 ft 460 kts 15°
2026-05-08 04:34 51.49849 -122.14517 34908 ft 459 kts 15°
2026-05-08 04:34 51.52644 -122.12706 34976 ft 460 kts 15°
2026-05-08 04:35 51.58137 -122.09135 34975 ft 461 kts 15°
2026-05-08 04:35 51.63094 -122.05907 34977 ft 461 kts 15°
2026-05-08 04:36 51.69998 -122.01395 34986 ft 461 kts 15°
2026-05-08 04:36 51.74141 -121.98674 34964 ft 448 kts 15°
2026-05-08 04:37 51.78840 -121.95590 34973 ft 434 kts 14°
2026-05-08 04:37 51.84377 -121.91950 34979 ft 431 kts 14°
2026-05-08 04:38 51.90815 -121.87702 34981 ft 430 kts 14°
2026-05-08 04:38 51.95418 -121.84656 34981 ft 430 kts 14°
2026-05-08 04:39 52.00923 -121.81005 34981 ft 430 kts 14°
2026-05-08 04:39 52.06430 -121.77341 34982 ft 430 kts 14°
2026-05-08 04:40 52.11949 -121.73660 34985 ft 430 kts 14°
2026-05-08 04:40 52.17444 -121.69986 34985 ft 430 kts 14°
2026-05-08 04:41 52.22938 -121.66302 34983 ft 429 kts 14°
2026-05-08 04:41 52.28424 -121.62612 34979 ft 429 kts 14°
2026-05-08 04:42 52.33925 -121.58904 34978 ft 428 kts 14°
2026-05-08 04:42 52.39395 -121.55206 34977 ft 428 kts 14°
2026-05-08 04:43 52.44858 -121.51502 34979 ft 427 kts 14°
2026-05-08 04:43 52.50329 -121.47786 34977 ft 427 kts 14°
2026-05-08 04:44 52.55773 -121.44074 34979 ft 426 kts 14°
2026-05-08 04:44 52.61208 -121.40360 34977 ft 425 kts 14°
2026-05-08 04:45 52.67549 -121.36017 34974 ft 425 kts 13°
2026-05-08 04:45 52.72085 -121.32898 34953 ft 425 kts 14°
2026-05-08 04:46 52.77501 -121.29169 34947 ft 424 kts 14°
2026-05-08 04:46 52.82914 -121.25430 34940 ft 424 kts 14°
2026-05-08 04:47 52.88336 -121.21673 34939 ft 423 kts 14°
2026-05-08 04:47 52.93739 -121.17923 34941 ft 423 kts 14°
2026-05-08 04:48 52.99128 -121.14168 34944 ft 423 kts 14°
2026-05-08 04:48 53.04513 -121.10410 34947 ft 422 kts 14°
2026-05-08 04:49 53.09904 -121.06633 34950 ft 421 kts 14°
2026-05-08 04:49 53.15279 -121.02862 34959 ft 421 kts 14°
2026-05-08 04:50 53.21544 -120.98448 34965 ft 421 kts 14°